Year,Month,Day,Hour,Minute,Value (Times are PST for windgust in km/hr)
2014,02,13,00,00,3.20
2014,02,13,00,01,1.60
2014,02,13,00,02,1.60
2014,02,13,00,05,3.20
2014,02,13,00,06,3.20
2014,02,13,00,07,4.80
2014,02,13,00,08,4.80
2014,02,13,00,09,4.80
2014,02,13,00,10,4.80
2014,02,13,00,11,4.80
2014,02,13,00,12,3.20
2014,02,13,00,13,1.60
2014,02,13,00,14,1.60
2014,02,13,00,15,3.20
2014,02,13,00,16,1.60
2014,02,13,00,17,1.60
2014,02,13,00,18,4.80
2014,02,13,00,19,4.80
2014,02,13,00,20,4.80
2014,02,13,00,21,3.20
2014,02,13,00,22,3.20
2014,02,13,00,23,4.80
2014,02,13,00,24,3.20
2014,02,13,00,25,1.60
2014,02,13,00,26,1.60
2014,02,13,00,30,1.60
2014,02,13,00,31,3.20
2014,02,13,00,32,4.80
2014,02,13,00,33,4.80
2014,02,13,00,34,3.20
2014,02,13,00,35,3.20
2014,02,13,00,36,1.60
2014,02,13,00,37,1.60
2014,02,13,00,38,1.60
2014,02,13,00,39,3.20
2014,02,13,00,40,3.20
2014,02,13,00,41,3.20
2014,02,13,00,42,4.80
2014,02,13,00,43,3.20
2014,02,13,00,44,3.20
2014,02,13,00,45,3.20
2014,02,13,00,46,4.80
2014,02,13,00,47,4.80
2014,02,13,00,48,3.20
2014,02,13,00,49,3.20
2014,02,13,00,50,1.60
2014,02,13,00,51,1.60
2014,02,13,00,52,3.20
2014,02,13,00,53,3.20
2014,02,13,00,54,4.80
2014,02,13,00,55,3.20
2014,02,13,00,56,4.80
2014,02,13,00,57,4.80
2014,02,13,00,58,6.40
2014,02,13,00,59,6.40
2014,02,13,01,00,6.40
2014,02,13,01,01,4.80
2014,02,13,01,02,6.40
2014,02,13,01,03,6.40
2014,02,13,01,04,4.80
2014,02,13,01,05,4.80
2014,02,13,01,06,3.20
2014,02,13,01,07,4.80
2014,02,13,01,08,4.80
2014,02,13,01,09,4.80
2014,02,13,01,10,1.60
2014,02,13,01,11,1.60
2014,02,13,01,12,1.60
2014,02,13,01,13,1.60
2014,02,13,01,14,1.60
2014,02,13,01,15,1.60
2014,02,13,01,16,3.20
2014,02,13,01,17,6.40
2014,02,13,01,18,4.80
2014,02,13,01,19,6.40
2014,02,13,01,20,3.20
2014,02,13,01,21,4.80
2014,02,13,01,22,4.80
2014,02,13,01,23,4.80
2014,02,13,01,24,3.20
2014,02,13,01,25,3.20
2014,02,13,01,26,3.20
2014,02,13,01,27,1.60
2014,02,13,01,29,1.60
2014,02,13,01,30,3.20
2014,02,13,01,31,3.20
2014,02,13,01,32,3.20
2014,02,13,01,33,3.20
2014,02,13,01,34,4.80
2014,02,13,01,35,4.80
2014,02,13,01,36,3.20
2014,02,13,01,37,3.20
2014,02,13,01,38,3.20
2014,02,13,01,39,3.20
2014,02,13,01,40,4.80
2014,02,13,01,41,4.80
2014,02,13,01,42,4.80
2014,02,13,01,43,1.60
2014,02,13,01,44,1.60
2014,02,13,01,45,1.60
2014,02,13,01,46,1.60
2014,02,13,01,47,1.60
2014,02,13,01,48,1.60
2014,02,13,01,49,1.60
2014,02,13,01,50,3.20
2014,02,13,01,51,3.20
2014,02,13,01,52,1.60
2014,02,13,01,53,1.60
2014,02,13,01,54,4.80
2014,02,13,01,55,4.80
2014,02,13,01,56,3.20
2014,02,13,01,57,3.20
2014,02,13,01,58,1.60
2014,02,13,01,59,3.20
2014,02,13,02,00,3.20
2014,02,13,02,01,3.20
2014,02,13,02,02,3.20
2014,02,13,02,03,3.20
2014,02,13,02,04,3.20
2014,02,13,02,05,3.20
2014,02,13,02,06,1.60
2014,02,13,02,07,3.20
2014,02,13,02,08,3.20
2014,02,13,02,09,3.20
2014,02,13,02,10,1.60
2014,02,13,02,11,3.20
2014,02,13,02,12,3.20
2014,02,13,02,13,1.60
2014,02,13,02,14,3.20
2014,02,13,02,15,3.20
2014,02,13,02,16,3.20
2014,02,13,02,17,1.60
2014,02,13,02,18,3.20
2014,02,13,02,19,4.80
2014,02,13,02,20,3.20
2014,02,13,02,21,3.20
2014,02,13,02,22,3.20
2014,02,13,02,23,3.20
2014,02,13,02,24,1.60
2014,02,13,02,25,1.60
2014,02,13,02,26,1.60
2014,02,13,02,27,1.60
2014,02,13,02,28,3.20
2014,02,13,02,29,4.80
2014,02,13,02,30,4.80
2014,02,13,02,31,3.20
2014,02,13,02,32,3.20
2014,02,13,02,33,3.20
2014,02,13,02,34,3.20
2014,02,13,02,35,3.20
2014,02,13,02,36,3.20
2014,02,13,02,37,4.80
2014,02,13,02,38,4.80
2014,02,13,02,39,6.40
2014,02,13,02,40,6.40
2014,02,13,02,41,6.40
2014,02,13,02,42,4.80
2014,02,13,02,43,6.40
2014,02,13,02,44,6.40
2014,02,13,02,45,9.60
2014,02,13,02,46,9.60
2014,02,13,02,47,6.40
2014,02,13,02,48,8.10
2014,02,13,02,49,6.40
2014,02,13,02,50,8.10
2014,02,13,02,51,4.80
2014,02,13,02,52,4.80
2014,02,13,02,53,4.80
2014,02,13,02,54,4.80
2014,02,13,02,55,4.80
2014,02,13,02,56,4.80
2014,02,13,02,57,4.80
2014,02,13,02,58,4.80
2014,02,13,02,59,3.20
2014,02,13,03,00,3.20
2014,02,13,03,01,1.60
2014,02,13,03,02,1.60
2014,02,13,03,03,1.60
2014,02,13,03,04,3.20
2014,02,13,03,05,3.20
2014,02,13,03,06,4.80
2014,02,13,03,07,3.20
2014,02,13,03,08,3.20
2014,02,13,03,09,1.60
2014,02,13,03,10,1.60
2014,02,13,03,11,3.20
2014,02,13,03,12,1.60
2014,02,13,03,13,1.60
2014,02,13,03,14,4.80
2014,02,13,03,15,4.80
2014,02,13,03,16,6.40
2014,02,13,03,17,6.40
2014,02,13,03,18,4.80
2014,02,13,03,19,6.40
2014,02,13,03,20,4.80
2014,02,13,03,21,3.20
2014,02,13,03,22,3.20
2014,02,13,03,23,4.80
2014,02,13,03,24,4.80
2014,02,13,03,25,4.80
2014,02,13,03,26,4.80
2014,02,13,03,27,3.20
2014,02,13,03,28,1.60
2014,02,13,03,29,4.80
2014,02,13,03,30,3.20
2014,02,13,03,31,4.80
2014,02,13,03,32,3.20
2014,02,13,03,33,4.80
2014,02,13,03,34,3.20
2014,02,13,03,35,3.20
2014,02,13,03,36,3.20
2014,02,13,03,37,3.20
2014,02,13,03,38,3.20
2014,02,13,03,39,3.20
2014,02,13,03,40,3.20
2014,02,13,03,41,3.20
2014,02,13,03,42,3.20
2014,02,13,03,43,4.80
2014,02,13,03,44,4.80
2014,02,13,03,45,3.20
2014,02,13,03,46,3.20
2014,02,13,03,47,4.80
2014,02,13,03,48,6.40
2014,02,13,03,49,4.80
2014,02,13,03,50,3.20
2014,02,13,03,51,4.80
2014,02,13,03,52,1.60
2014,02,13,03,53,8.10
2014,02,13,03,54,6.40
2014,02,13,03,55,14.50
2014,02,13,03,56,24.20
2014,02,13,03,57,9.60
2014,02,13,03,58,14.50
2014,02,13,03,59,9.60
2014,02,13,04,00,8.10
2014,02,13,04,01,11.30
2014,02,13,04,02,8.10
2014,02,13,04,03,8.10
2014,02,13,04,04,8.10
2014,02,13,04,05,12.90
2014,02,13,04,06,8.10
2014,02,13,04,07,11.30
2014,02,13,04,08,11.30
2014,02,13,04,09,14.50
2014,02,13,04,10,22.50
2014,02,13,04,11,22.50
2014,02,13,04,12,9.60
2014,02,13,04,13,14.50
2014,02,13,04,14,17.70
2014,02,13,04,15,20.90
2014,02,13,04,16,16.10
2014,02,13,04,17,19.30
2014,02,13,04,18,17.70
2014,02,13,04,19,16.10
2014,02,13,04,20,14.50
2014,02,13,04,21,9.60
2014,02,13,04,22,11.30
2014,02,13,04,23,22.50
2014,02,13,04,24,19.30
2014,02,13,04,25,22.50
2014,02,13,04,26,12.90
2014,02,13,04,27,6.40
2014,02,13,04,28,9.60
2014,02,13,04,29,12.90
2014,02,13,04,30,17.70
2014,02,13,04,31,19.30
2014,02,13,04,32,11.30
2014,02,13,04,33,12.90
2014,02,13,04,34,19.30
2014,02,13,04,35,16.10
2014,02,13,04,36,27.40
2014,02,13,04,37,22.50
2014,02,13,04,38,32.20
2014,02,13,04,39,27.40
2014,02,13,04,40,27.40
2014,02,13,04,41,35.40
2014,02,13,04,42,35.40
2014,02,13,04,43,40.20
2014,02,13,04,44,27.40
2014,02,13,04,45,17.70
2014,02,13,04,46,24.20
2014,02,13,04,47,24.20
2014,02,13,04,48,35.40
2014,02,13,04,49,32.20
2014,02,13,04,50,24.20
2014,02,13,04,51,24.20
2014,02,13,04,52,29.00
2014,02,13,04,53,43.50
2014,02,13,04,54,33.80
2014,02,13,04,55,35.40
2014,02,13,04,56,40.20
2014,02,13,04,57,20.90
2014,02,13,04,58,22.50
2014,02,13,04,59,33.80
2014,02,13,05,00,30.60
2014,02,13,05,01,29.00
2014,02,13,05,02,25.70
2014,02,13,05,03,19.30
2014,02,13,05,04,29.00
2014,02,13,05,05,20.90
2014,02,13,05,06,22.50
2014,02,13,05,07,22.50
2014,02,13,05,08,19.30
2014,02,13,05,09,14.50
2014,02,13,05,10,12.90
2014,02,13,05,11,17.70
2014,02,13,05,12,24.20
2014,02,13,05,13,24.20
2014,02,13,05,14,19.30
2014,02,13,05,15,14.50
2014,02,13,05,16,22.50
2014,02,13,05,17,27.40
2014,02,13,05,18,41.80
2014,02,13,05,19,41.80
2014,02,13,05,20,41.80
2014,02,13,05,21,41.80
2014,02,13,05,22,33.80
2014,02,13,05,23,45.10
2014,02,13,05,24,35.40
2014,02,13,05,25,40.20
2014,02,13,05,26,41.80
2014,02,13,05,27,59.50
2014,02,13,05,28,41.80
2014,02,13,05,29,43.50
2014,02,13,05,30,56.30
2014,02,13,05,31,43.50
2014,02,13,05,32,32.20
2014,02,13,05,33,40.20
2014,02,13,05,34,38.60
2014,02,13,05,35,38.60
2014,02,13,05,36,53.10
2014,02,13,05,37,37.00
2014,02,13,05,38,51.50
2014,02,13,05,39,35.40
2014,02,13,05,40,45.10
2014,02,13,05,41,59.50
2014,02,13,05,42,56.30
2014,02,13,05,43,54.70
2014,02,13,05,44,30.60
2014,02,13,05,45,45.10
2014,02,13,05,46,43.50
2014,02,13,05,47,38.60
2014,02,13,05,48,30.60
2014,02,13,05,49,37.00
2014,02,13,05,50,38.60
2014,02,13,05,51,27.40
2014,02,13,05,52,30.60
2014,02,13,05,53,27.40
2014,02,13,05,54,19.30
2014,02,13,05,55,24.20
2014,02,13,05,56,32.20
2014,02,13,05,57,29.00
2014,02,13,05,58,30.60
2014,02,13,05,59,22.50
2014,02,13,06,00,27.40
2014,02,13,06,01,32.20
2014,02,13,06,02,38.60
2014,02,13,06,03,37.00
2014,02,13,06,04,37.00
2014,02,13,06,05,46.70
2014,02,13,06,06,32.20
2014,02,13,06,07,33.80
2014,02,13,06,08,16.10
2014,02,13,06,09,24.20
2014,02,13,06,10,45.10
2014,02,13,06,11,46.70
2014,02,13,06,12,41.80
2014,02,13,06,13,27.40
2014,02,13,06,14,32.20
2014,02,13,06,15,27.40
2014,02,13,06,16,37.00
2014,02,13,06,17,16.10
2014,02,13,06,18,27.40
2014,02,13,06,19,32.20
2014,02,13,06,20,24.20
2014,02,13,06,21,20.90
2014,02,13,06,22,20.90
2014,02,13,06,23,29.00
2014,02,13,06,24,24.20
2014,02,13,06,25,29.00
2014,02,13,06,26,24.20
2014,02,13,06,27,20.90
2014,02,13,06,28,22.50
2014,02,13,06,29,22.50
2014,02,13,06,30,14.50
2014,02,13,06,31,12.90
2014,02,13,06,32,27.40
2014,02,13,06,33,29.00
2014,02,13,06,34,24.20
2014,02,13,06,35,30.60
2014,02,13,06,36,22.50
2014,02,13,06,37,22.50
2014,02,13,06,38,22.50
2014,02,13,06,39,40.20
2014,02,13,06,40,49.90
2014,02,13,06,41,32.20
2014,02,13,06,42,32.20
2014,02,13,06,43,25.70
2014,02,13,06,44,32.20
2014,02,13,06,45,48.30
2014,02,13,06,46,37.00
2014,02,13,06,47,25.70
2014,02,13,06,48,32.20
2014,02,13,06,49,54.70
2014,02,13,06,50,41.80
2014,02,13,06,51,35.40
2014,02,13,06,52,22.50
2014,02,13,06,53,30.60
2014,02,13,06,54,37.00
2014,02,13,06,55,30.60
2014,02,13,06,56,32.20
2014,02,13,06,57,27.40
2014,02,13,06,58,24.20
2014,02,13,06,59,27.40
2014,02,13,07,00,32.20
2014,02,13,07,01,41.80
2014,02,13,07,02,22.50
2014,02,13,07,03,27.40
2014,02,13,07,04,29.00
2014,02,13,07,05,19.30
2014,02,13,07,06,14.50
2014,02,13,07,07,20.90
2014,02,13,07,08,20.90
2014,02,13,07,09,30.60
2014,02,13,07,10,32.20
2014,02,13,07,11,38.60
2014,02,13,07,12,43.50
2014,02,13,07,13,37.00
2014,02,13,07,14,25.70
2014,02,13,07,15,32.20
2014,02,13,07,16,29.00
2014,02,13,07,17,35.40
2014,02,13,07,18,25.70
2014,02,13,07,19,17.70
2014,02,13,07,20,19.30
2014,02,13,07,21,27.40
2014,02,13,07,22,22.50
2014,02,13,07,23,27.40
2014,02,13,07,24,27.40
2014,02,13,07,25,17.70
2014,02,13,07,26,43.50
2014,02,13,07,27,37.00
2014,02,13,07,28,25.70
2014,02,13,07,29,22.50
2014,02,13,07,30,30.60
2014,02,13,07,31,14.50
2014,02,13,07,32,22.50
2014,02,13,07,33,29.00
2014,02,13,07,34,11.30
2014,02,13,07,35,20.90
2014,02,13,07,36,29.00
2014,02,13,07,37,12.90
2014,02,13,07,38,25.70
2014,02,13,07,39,20.90
2014,02,13,07,40,16.10
2014,02,13,07,41,14.50
2014,02,13,07,42,6.40
2014,02,13,07,43,8.10
2014,02,13,07,44,4.80
2014,02,13,07,45,8.10
2014,02,13,07,46,8.10
2014,02,13,07,47,4.80
2014,02,13,07,48,12.90
2014,02,13,07,49,12.90
2014,02,13,07,50,8.10
2014,02,13,07,51,11.30
2014,02,13,07,52,14.50
2014,02,13,07,53,14.50
2014,02,13,07,54,12.90
2014,02,13,07,55,12.90
2014,02,13,07,56,17.70
2014,02,13,07,57,24.20
2014,02,13,07,58,12.90
2014,02,13,07,59,22.50
2014,02,13,08,00,19.30
2014,02,13,08,01,22.50
2014,02,13,08,02,22.50
2014,02,13,08,03,24.20
2014,02,13,08,04,22.50
2014,02,13,08,05,22.50
2014,02,13,08,06,22.50
2014,02,13,08,07,12.90
2014,02,13,08,08,14.50
2014,02,13,08,09,12.90
2014,02,13,08,10,17.70
2014,02,13,08,11,19.30
2014,02,13,08,12,16.10
2014,02,13,08,13,19.30
2014,02,13,08,14,22.50
2014,02,13,08,15,12.90
2014,02,13,08,16,14.50
2014,02,13,08,17,12.90
2014,02,13,08,18,8.10
2014,02,13,08,19,12.90
2014,02,13,08,20,12.90
2014,02,13,08,21,8.10
2014,02,13,08,22,4.80
2014,02,13,08,23,3.20
2014,02,13,08,24,12.90
2014,02,13,08,25,11.30
2014,02,13,08,26,9.60
2014,02,13,08,27,9.60
2014,02,13,08,28,6.40
2014,02,13,08,29,11.30
2014,02,13,08,30,8.10
2014,02,13,08,31,6.40
2014,02,13,08,32,1.60
2014,02,13,08,33,1.60
2014,02,13,08,34,4.80
2014,02,13,08,35,4.80
2014,02,13,08,36,4.80
2014,02,13,08,37,3.20
2014,02,13,08,38,1.60
2014,02,13,08,39,3.20
2014,02,13,08,40,4.80
2014,02,13,08,41,3.20
2014,02,13,08,42,1.60
2014,02,13,08,43,1.60
2014,02,13,08,44,3.20
2014,02,13,08,45,3.20
2014,02,13,08,46,4.80
2014,02,13,08,47,4.80
2014,02,13,08,48,3.20
2014,02,13,08,49,3.20
2014,02,13,08,50,3.20
2014,02,13,08,51,3.20
2014,02,13,08,52,1.60
2014,02,13,08,53,1.60
2014,02,13,08,54,6.40
2014,02,13,08,55,6.40
2014,02,13,08,56,4.80
2014,02,13,08,57,3.20
2014,02,13,08,58,6.40
2014,02,13,08,59,3.20
2014,02,13,09,00,3.20
2014,02,13,09,01,3.20
2014,02,13,09,02,4.80
2014,02,13,09,03,4.80
2014,02,13,09,04,4.80
2014,02,13,09,05,3.20
2014,02,13,09,06,4.80
2014,02,13,09,07,4.80
2014,02,13,09,08,4.80
2014,02,13,09,09,4.80
2014,02,13,09,10,4.80
2014,02,13,09,11,12.90
2014,02,13,09,12,11.30
2014,02,13,09,13,11.30
2014,02,13,09,14,11.30
2014,02,13,09,15,9.60
2014,02,13,09,16,9.60
2014,02,13,09,17,3.20
2014,02,13,09,18,4.80
2014,02,13,09,19,4.80
2014,02,13,09,20,6.40
2014,02,13,09,21,6.40
2014,02,13,09,22,4.80
2014,02,13,09,23,4.80
2014,02,13,09,24,4.80
2014,02,13,09,25,3.20
2014,02,13,09,26,4.80
2014,02,13,09,27,6.40
2014,02,13,09,28,6.40
2014,02,13,09,29,3.20
2014,02,13,09,30,4.80
2014,02,13,09,31,4.80
2014,02,13,09,32,3.20
2014,02,13,09,33,1.60
2014,02,13,09,34,1.60
2014,02,13,09,35,1.60
2014,02,13,09,36,3.20
2014,02,13,09,37,4.80
2014,02,13,09,38,4.80
2014,02,13,09,39,6.40
2014,02,13,09,40,6.40
2014,02,13,09,41,4.80
2014,02,13,09,42,6.40
2014,02,13,09,43,4.80
2014,02,13,09,44,4.80
2014,02,13,09,45,4.80
2014,02,13,09,46,4.80
2014,02,13,09,47,3.20
2014,02,13,09,48,1.60
2014,02,13,09,49,1.60
2014,02,13,09,50,1.60
2014,02,13,09,51,1.60
2014,02,13,09,52,1.60
2014,02,13,09,53,1.60
2014,02,13,09,54,1.60
2014,02,13,09,55,3.20
2014,02,13,09,56,4.80
2014,02,13,09,57,4.80
2014,02,13,09,58,6.40
2014,02,13,09,59,4.80
2014,02,13,10,00,4.80
2014,02,13,10,01,4.80
2014,02,13,10,02,4.80
2014,02,13,10,03,4.80
2014,02,13,10,04,4.80
2014,02,13,10,05,3.20
2014,02,13,10,06,1.60
2014,02,13,10,07,1.60
2014,02,13,10,08,3.20
2014,02,13,10,09,1.60
2014,02,13,10,10,1.60
2014,02,13,10,11,3.20
2014,02,13,10,12,3.20
2014,02,13,10,13,4.80
2014,02,13,10,14,3.20
2014,02,13,10,15,4.80
2014,02,13,10,16,4.80
2014,02,13,10,17,4.80
2014,02,13,10,18,4.80
2014,02,13,10,19,3.20
2014,02,13,10,20,4.80
2014,02,13,10,21,4.80
2014,02,13,10,22,4.80
2014,02,13,10,23,3.20
2014,02,13,10,24,4.80
2014,02,13,10,25,4.80
2014,02,13,10,26,3.20
2014,02,13,10,27,3.20
2014,02,13,10,28,3.20
2014,02,13,10,29,3.20
2014,02,13,10,30,3.20
2014,02,13,10,31,1.60
2014,02,13,10,32,1.60
2014,02,13,10,33,1.60
2014,02,13,10,34,3.20
2014,02,13,10,35,4.80
2014,02,13,10,36,3.20
2014,02,13,10,37,3.20
2014,02,13,10,38,3.20
2014,02,13,10,39,4.80
2014,02,13,10,40,4.80
2014,02,13,10,41,4.80
2014,02,13,10,42,6.40
2014,02,13,10,43,6.40
2014,02,13,10,44,4.80
2014,02,13,10,45,3.20
2014,02,13,10,46,1.60
2014,02,13,10,47,6.40
2014,02,13,10,48,4.80
2014,02,13,10,49,6.40
2014,02,13,10,50,6.40
2014,02,13,10,51,9.60
2014,02,13,10,52,6.40
2014,02,13,10,53,9.60
2014,02,13,10,54,11.30
2014,02,13,10,55,6.40
2014,02,13,10,56,4.80
2014,02,13,10,57,9.60
2014,02,13,10,58,6.40
2014,02,13,10,59,6.40
2014,02,13,11,00,3.20
2014,02,13,11,01,6.40
2014,02,13,11,02,4.80
2014,02,13,11,03,9.60
2014,02,13,11,04,6.40
2014,02,13,11,05,4.80
2014,02,13,11,06,8.10
2014,02,13,11,07,4.80
2014,02,13,11,08,6.40
2014,02,13,11,09,9.60
2014,02,13,11,10,14.50
2014,02,13,11,11,11.30
2014,02,13,11,12,12.90
2014,02,13,11,13,14.50
2014,02,13,11,14,14.50
2014,02,13,11,15,24.20
2014,02,13,11,16,22.50
2014,02,13,11,17,14.50
2014,02,13,11,18,16.10
2014,02,13,11,19,16.10
2014,02,13,11,20,8.10
2014,02,13,11,21,16.10
2014,02,13,11,22,8.10
2014,02,13,11,23,9.60
2014,02,13,11,24,8.10
2014,02,13,11,25,12.90
2014,02,13,11,26,17.70
2014,02,13,11,27,6.40
2014,02,13,11,28,6.40
2014,02,13,11,29,11.30
2014,02,13,11,30,8.10
2014,02,13,11,31,11.30
2014,02,13,11,32,6.40
2014,02,13,11,33,3.20
2014,02,13,11,34,8.10
2014,02,13,11,35,12.90
2014,02,13,11,36,14.50
2014,02,13,11,37,16.10
2014,02,13,11,38,12.90
2014,02,13,11,39,11.30
2014,02,13,11,40,12.90
2014,02,13,11,41,29.00
2014,02,13,11,42,17.70
2014,02,13,11,43,20.90
2014,02,13,11,44,22.50
2014,02,13,11,45,11.30
2014,02,13,11,46,16.10
2014,02,13,11,47,9.60
2014,02,13,11,48,14.50
2014,02,13,11,49,22.50
2014,02,13,11,50,17.70
2014,02,13,11,51,12.90
2014,02,13,11,52,22.50
2014,02,13,11,53,17.70
2014,02,13,11,54,20.90
2014,02,13,11,55,20.90
2014,02,13,11,56,16.10
2014,02,13,11,57,16.10
2014,02,13,11,58,17.70
2014,02,13,11,59,12.90
2014,02,13,12,00,14.50
2014,02,13,12,01,11.30
2014,02,13,12,02,6.40
2014,02,13,12,03,4.80
2014,02,13,12,04,3.20
2014,02,13,12,05,6.40
2014,02,13,12,06,3.20
2014,02,13,12,07,3.20
2014,02,13,12,08,3.20
2014,02,13,12,09,4.80
2014,02,13,12,10,12.90
2014,02,13,12,11,12.90
2014,02,13,12,12,4.80
2014,02,13,12,13,6.40
2014,02,13,12,14,3.20
2014,02,13,12,15,3.20
2014,02,13,12,16,8.10
2014,02,13,12,17,11.30
2014,02,13,12,18,3.20
2014,02,13,12,19,4.80
2014,02,13,12,20,3.20
2014,02,13,12,21,3.20
2014,02,13,12,22,4.80
2014,02,13,12,23,4.80
2014,02,13,12,24,6.40
2014,02,13,12,25,16.10
2014,02,13,12,26,11.30
2014,02,13,12,27,4.80
2014,02,13,12,28,3.20
2014,02,13,12,29,12.90
2014,02,13,12,30,24.20
2014,02,13,12,31,17.70
2014,02,13,12,32,14.50
2014,02,13,12,33,17.70
2014,02,13,12,34,19.30
2014,02,13,12,35,14.50
2014,02,13,12,36,9.60
2014,02,13,12,37,16.10
2014,02,13,12,38,24.20
2014,02,13,12,39,20.90
2014,02,13,12,40,16.10
2014,02,13,12,41,25.70
2014,02,13,12,42,22.50
2014,02,13,12,43,11.30
2014,02,13,12,44,17.70
2014,02,13,12,45,14.50
2014,02,13,12,46,11.30
2014,02,13,12,47,12.90
2014,02,13,12,48,12.90
2014,02,13,12,49,11.30
2014,02,13,12,50,12.90
2014,02,13,12,51,14.50
2014,02,13,12,52,14.50
2014,02,13,12,53,16.10
2014,02,13,12,54,16.10
2014,02,13,12,55,20.90
2014,02,13,12,56,14.50
2014,02,13,12,57,17.70
2014,02,13,12,58,14.50
2014,02,13,12,59,22.50
2014,02,13,13,00,14.50
2014,02,13,13,01,6.40
2014,02,13,13,02,12.90
2014,02,13,13,03,8.10
2014,02,13,13,04,6.40
2014,02,13,13,05,8.10
2014,02,13,13,06,20.90
2014,02,13,13,07,19.30
2014,02,13,13,08,17.70
2014,02,13,13,09,12.90
2014,02,13,13,10,17.70
2014,02,13,13,11,12.90
2014,02,13,13,12,19.30
2014,02,13,13,13,17.70
2014,02,13,13,14,16.10
2014,02,13,13,15,14.50
2014,02,13,13,16,12.90
2014,02,13,13,17,9.60
2014,02,13,13,18,8.10
2014,02,13,13,19,8.10
2014,02,13,13,20,12.90
2014,02,13,13,21,9.60
2014,02,13,13,22,12.90
2014,02,13,13,23,20.90
2014,02,13,13,24,14.50
2014,02,13,13,25,19.30
2014,02,13,13,26,19.30
2014,02,13,13,27,19.30
2014,02,13,13,28,22.50
2014,02,13,13,29,30.60
2014,02,13,13,30,24.20
2014,02,13,13,31,22.50
2014,02,13,13,32,25.70
2014,02,13,13,33,12.90
2014,02,13,13,34,14.50
2014,02,13,13,35,16.10
2014,02,13,13,36,16.10
2014,02,13,13,37,17.70
2014,02,13,13,38,22.50
2014,02,13,13,39,22.50
2014,02,13,13,40,19.30
2014,02,13,13,41,12.90
2014,02,13,13,42,14.50
2014,02,13,13,43,8.10
2014,02,13,13,44,14.50
2014,02,13,13,45,16.10
2014,02,13,13,46,14.50
2014,02,13,13,47,17.70
2014,02,13,13,48,11.30
2014,02,13,13,49,8.10
2014,02,13,13,50,9.60
2014,02,13,13,51,17.70
2014,02,13,13,52,14.50
2014,02,13,13,53,20.90
2014,02,13,13,54,16.10
2014,02,13,13,55,9.60
2014,02,13,13,56,12.90
2014,02,13,13,57,4.80
2014,02,13,13,58,14.50
2014,02,13,13,59,11.30
2014,02,13,14,00,11.30
2014,02,13,14,01,14.50
2014,02,13,14,02,11.30
2014,02,13,14,03,9.60
2014,02,13,14,04,4.80
2014,02,13,14,05,16.10
2014,02,13,14,06,14.50
2014,02,13,14,07,11.30
2014,02,13,14,08,11.30
2014,02,13,14,09,4.80
2014,02,13,14,10,6.40
2014,02,13,14,11,11.30
2014,02,13,14,12,12.90
2014,02,13,14,13,6.40
2014,02,13,14,14,11.30
2014,02,13,14,15,6.40
2014,02,13,14,16,6.40
2014,02,13,14,17,4.80
2014,02,13,14,18,6.40
2014,02,13,14,19,4.80
2014,02,13,14,20,3.20
2014,02,13,14,21,8.10
2014,02,13,14,22,14.50
2014,02,13,14,23,12.90
2014,02,13,14,24,6.40
2014,02,13,14,25,16.10
2014,02,13,14,26,14.50
2014,02,13,14,27,11.30
2014,02,13,14,28,14.50
2014,02,13,14,29,12.90
2014,02,13,14,30,8.10
2014,02,13,14,31,17.70
2014,02,13,14,32,11.30
2014,02,13,14,33,19.30
2014,02,13,14,34,16.10
2014,02,13,14,35,16.10
2014,02,13,14,36,14.50
2014,02,13,14,37,11.30
2014,02,13,14,38,14.50
2014,02,13,14,39,16.10
2014,02,13,14,40,11.30
2014,02,13,14,41,11.30
2014,02,13,14,42,16.10
2014,02,13,14,43,11.30
2014,02,13,14,44,19.30
2014,02,13,14,45,17.70
2014,02,13,14,46,17.70
2014,02,13,14,47,16.10
2014,02,13,14,48,16.10
2014,02,13,14,49,14.50
2014,02,13,14,50,14.50
2014,02,13,14,51,16.10
2014,02,13,14,52,22.50
2014,02,13,14,53,25.70
2014,02,13,14,54,19.30
2014,02,13,14,55,16.10
2014,02,13,14,56,16.10
2014,02,13,14,57,16.10
2014,02,13,14,58,12.90
2014,02,13,14,59,19.30
2014,02,13,15,00,14.50
2014,02,13,15,01,8.10
2014,02,13,15,02,19.30
2014,02,13,15,03,17.70
2014,02,13,15,04,19.30
2014,02,13,15,05,14.50
2014,02,13,15,06,22.50
2014,02,13,15,07,20.90
2014,02,13,15,08,14.50
2014,02,13,15,09,22.50
2014,02,13,15,10,14.50
2014,02,13,15,11,16.10
2014,02,13,15,12,12.90
2014,02,13,15,13,12.90
2014,02,13,15,14,24.20
2014,02,13,15,15,24.20
2014,02,13,15,16,17.70
2014,02,13,15,17,14.50
2014,02,13,15,18,12.90
2014,02,13,15,19,14.50
2014,02,13,15,20,14.50
2014,02,13,15,21,6.40
2014,02,13,15,22,11.30
2014,02,13,15,23,16.10
2014,02,13,15,24,6.40
2014,02,13,15,25,17.70
2014,02,13,15,26,12.90
2014,02,13,15,27,9.60
2014,02,13,15,28,8.10
2014,02,13,15,29,25.70
2014,02,13,15,30,25.70
2014,02,13,15,31,20.90
2014,02,13,15,32,22.50
2014,02,13,15,33,20.90
2014,02,13,15,34,14.50
2014,02,13,15,35,30.60
2014,02,13,15,36,27.40
2014,02,13,15,37,12.90
2014,02,13,15,38,9.60
2014,02,13,15,39,14.50
2014,02,13,15,40,14.50
2014,02,13,15,41,4.80
2014,02,13,15,42,4.80
2014,02,13,15,43,9.60
2014,02,13,15,44,9.60
2014,02,13,15,45,4.80
2014,02,13,15,46,6.40
2014,02,13,15,47,6.40
2014,02,13,15,48,6.40
2014,02,13,15,49,19.30
2014,02,13,15,50,12.90
2014,02,13,15,51,6.40
2014,02,13,15,52,4.80
2014,02,13,15,53,6.40
2014,02,13,15,54,8.10
2014,02,13,15,55,12.90
2014,02,13,15,56,12.90
2014,02,13,15,57,12.90
2014,02,13,15,58,12.90
2014,02,13,15,59,8.10
2014,02,13,16,00,6.40
2014,02,13,16,01,12.90
2014,02,13,16,02,6.40
2014,02,13,16,03,4.80
2014,02,13,16,04,8.10
2014,02,13,16,05,6.40
2014,02,13,16,06,3.20
2014,02,13,16,07,8.10
2014,02,13,16,08,6.40
2014,02,13,16,09,8.10
2014,02,13,16,10,11.30
2014,02,13,16,11,9.60
2014,02,13,16,12,4.80
2014,02,13,16,13,8.10
2014,02,13,16,14,6.40
2014,02,13,16,15,6.40
2014,02,13,16,16,6.40
2014,02,13,16,17,4.80
2014,02,13,16,18,4.80
2014,02,13,16,19,4.80
2014,02,13,16,20,6.40
2014,02,13,16,21,6.40
2014,02,13,16,22,4.80
2014,02,13,16,23,4.80
2014,02,13,16,24,9.60
2014,02,13,16,25,6.40
2014,02,13,16,26,4.80
2014,02,13,16,27,6.40
2014,02,13,16,28,4.80
2014,02,13,16,29,4.80
2014,02,13,16,30,6.40
2014,02,13,16,31,6.40
2014,02,13,16,32,6.40
2014,02,13,16,33,12.90
2014,02,13,16,34,9.60
2014,02,13,16,35,8.10
2014,02,13,16,36,14.50
2014,02,13,16,37,12.90
2014,02,13,16,38,12.90
2014,02,13,16,39,12.90
2014,02,13,16,40,9.60
2014,02,13,16,41,11.30
2014,02,13,16,42,8.10
2014,02,13,16,43,8.10
2014,02,13,16,44,8.10
2014,02,13,16,45,4.80
2014,02,13,16,46,3.20
2014,02,13,16,47,4.80
2014,02,13,16,48,3.20
2014,02,13,16,49,4.80
2014,02,13,16,50,3.20
2014,02,13,16,51,3.20
2014,02,13,16,52,3.20
2014,02,13,16,53,3.20
2014,02,13,16,54,6.40
2014,02,13,16,55,6.40
2014,02,13,16,56,8.10
2014,02,13,16,57,3.20
2014,02,13,16,58,3.20
2014,02,13,16,59,4.80
2014,02,13,17,00,4.80
2014,02,13,17,01,4.80
2014,02,13,17,02,3.20
2014,02,13,17,03,4.80
2014,02,13,17,04,3.20
2014,02,13,17,05,3.20
2014,02,13,17,06,3.20
2014,02,13,17,07,4.80
2014,02,13,17,08,6.40
2014,02,13,17,09,6.40
2014,02,13,17,10,4.80
2014,02,13,17,11,4.80
2014,02,13,17,12,3.20
2014,02,13,17,13,3.20
2014,02,13,17,14,3.20
2014,02,13,17,15,3.20
2014,02,13,17,16,4.80
2014,02,13,17,17,4.80
2014,02,13,17,18,3.20
2014,02,13,17,19,3.20
2014,02,13,17,20,4.80
2014,02,13,17,21,4.80
2014,02,13,17,22,6.40
2014,02,13,17,23,4.80
2014,02,13,17,24,4.80
2014,02,13,17,25,3.20
2014,02,13,17,26,3.20
2014,02,13,17,27,3.20
2014,02,13,17,28,4.80
2014,02,13,17,29,3.20
2014,02,13,17,30,1.60
2014,02,13,17,31,1.60
2014,02,13,17,32,1.60
2014,02,13,17,35,1.60
2014,02,13,17,36,1.60
2014,02,13,17,38,1.60
2014,02,13,17,39,1.60
2014,02,13,17,40,1.60
2014,02,13,17,41,1.60
2014,02,13,17,42,3.20
2014,02,13,17,43,3.20
2014,02,13,17,44,3.20
2014,02,13,17,45,3.20
2014,02,13,17,46,4.80
2014,02,13,17,47,4.80
2014,02,13,17,48,4.80
2014,02,13,17,49,3.20
2014,02,13,17,50,3.20
2014,02,13,17,51,1.60
2014,02,13,17,52,1.60
2014,02,13,17,54,1.60
2014,02,13,17,55,1.60